This is the latest recevied weather packets stored in our database for station/object W4ZHA. If no packets are shown the sender has not sent any weather packets the latest 10 day(s).
| Time | Temp. | Humidity | Pressure | Rain* | Wind** | Luminosity | Snow |
|---|---|---|---|---|---|---|---|
| 1788016185 | 27.22° C | 62% | 1021.8 hPa | 0 mm | - | 145 W/m² | - |
| 1788015884 | 27.22° C | 63% | 1021.8 hPa | 0 mm | - | 68 W/m² | - |
| 1788015579 | 26.67° C | 64% | 1021.8 hPa | 0 mm | - | 121 W/m² | - |
| 1788015274 | 26.11° C | 64% | 1021.8 hPa | 0 mm | - | 58 W/m² | - |
| 1788014973 | 26.11° C | 64% | 1021.8 hPa | 0 mm | - | 58 W/m² | - |
| 1788014672 | 26.67° C | 64% | 1021.3 hPa | 0 mm | - | 53 W/m² | - |
| 1788014372 | 26.11° C | 64% | 1021.3 hPa | 0 mm | - | 52 W/m² | - |
| 1788014068 | 26.11° C | 64% | 1021.8 hPa | 0 mm | - | 50 W/m² | - |
| 1788013767 | 26.11° C | 65% | 1021.3 hPa | 0 mm | - | 49 W/m² | - |
| 1788013462 | 26.11° C | 65% | 1021.3 hPa | 0 mm | - | 49 W/m² | - |
| 1788013162 | 26.11° C | 65% | 1021.8 hPa | 0 mm | - | 49 W/m² | - |
| 1788012861 | 26.11° C | 66% | 1021.3 hPa | 0 mm | - | 47 W/m² | - |
| 1788012556 | 26.11° C | 65% | 1021.3 hPa | 0 mm | - | 47 W/m² | - |
| 1788012251 | 25.56° C | 66% | 1021.3 hPa | 0 mm | - | 47 W/m² | - |
| 1788011950 | 25° C | 65% | 1021.8 hPa | 0 mm | - | 47 W/m² | - |
| 1788011649 | 25° C | 66% | 1021.8 hPa | 0 mm | - | 58 W/m² | - |
| 1788011344 | 25° C | 66% | 1021.3 hPa | 0 mm | - | 45 W/m² | - |
| 1788011043 | 25° C | 66% | 1021 hPa | 0 mm | - | 57 W/m² | - |
| 1788010739 | 25° C | 66% | 1021 hPa | 0 mm | - | 41 W/m² | - |
| 1788010437 | 25° C | 67% | 1021 hPa | 0 mm | - | 40 W/m² | - |
| 1788010132 | 25° C | 67% | 1021 hPa | 0 mm | - | 40 W/m² | - |
| 1788009827 | 25° C | 67% | 1021 hPa | 0 mm | - | 40 W/m² | - |
| 1788009525 | 24.44° C | 67% | 1021.3 hPa | 0 mm | - | 39 W/m² | - |
| 1788009220 | 23.89° C | 67% | 1021 hPa | 0 mm | - | 47 W/m² | - |
| 1788008915 | 23.89° C | 67% | 1020.6 hPa | 0 mm | - | 40 W/m² | - |
* Rain latest hour (hover to see other rain measurements)
** Current wind speed in m/s (hover to see current wind gust speed)